Regional Weather Roundup
Issued by NWS

Home | Current Version | Previous Version | Text Only | Print | Product List | Glossary On
Versions: 1 2 3 4 5 6 7 8 9 10 11 12 13 14 15 16 17 18 19 20 21 22 23 24 25 26 27
000
ASUS45 KBOU 161906
RWRCO

WEATHER ROUNDUP FOR COLORADO
NATIONAL WEATHER SERVICE DENVER/BOULDER CO
100 PM MDT WED APR 16 2014

NOTE: "FAIR" INDICATES FEW OR NO CLOUDS BELOW 12000 FEET WITH NO
SIGNIFICANT WEATHER AND/OR OBSTRUCTIONS TO VISIBILITY.

COZ001>005-013-030-031-162000-
...NORTHWEST COLORADO...

CITY           SKY/WX    TMP DP  RH WIND       PRES   REMARKS
CRAIG          PTSUNNY   48  10  21 W8G17     29.99F
HAYDEN         PTSUNNY   45   9  23 NW13G20   30.01F
MEEKER         PTSUNNY   51  17  26 NE8       29.97F
MOUNT WERNER   NOT AVBL
STEAMBOAT SPGS PTSUNNY   44   6  21 SW9G17    29.98F
WALDEN         MOSUNNY   37  12  35 SW12G18   29.97F
$$

COZ006>008-011-162000-
...WEST CENTRAL VALLEYS...

CITY           SKY/WX    TMP DP  RH WIND       PRES   REMARKS
GRAND JUNCTION PTSUNNY   55   9  16 CALM      29.93F
MONTROSE       CLOUDY    53  15  22 VRB3      29.96F
EAGLE          MOSUNNY   50  14  23 SW12      29.95F
RIFLE          PTSUNNY   53   7  15 NW3       29.95F
DELTA          CLOUDY    58   7  13 W14       29.93S
NUCLA            N/A     55  16  21 N7        29.96F
$$

COZ017>023-064>068-162000-
...SOUTHWEST COLORADO...

CITY           SKY/WX    TMP DP  RH WIND       PRES   REMARKS
DURANGO        MOSUNNY   62  13  14 SW16G29   29.87F
CORTEZ         SUNNY     62  18  18 W14G21    29.91S
PAGOSA SPRINGS MOSUNNY   58   7  13 W16G25    29.89F
TELLURIDE      CLOUDY    45  16  31 W8G20     29.98F
WOLF CREEK PAS MOSUNNY   36  12  38 SW17G30   30.04S
$$

COZ009-010-012-014-032>034-037-058>063-162000-
...CENTRAL COLORADO...

CITY           SKY/WX    TMP DP  RH WIND       PRES   REMARKS
ASPEN          PTSUNNY   48  13  24 N10       29.95F
BUENA VISTA    PTSUNNY   52   9  17 SW17G30   29.88F
COPPER MTN     PTSUNNY   32   5  32 SW17G24   30.01F WCI  21
BERTHOUD PASS  FAIR      19  10  68 NW26G39   30.00F WCI   1
COTTONWOOD PAS PTSUNNY   45   7  21 NW8G25    29.95S
GUNNISON       PTSUNNY   48  12  23 SW20G26   29.95F
KREMMLING      PTSUNNY   50  10  20 W5        29.98F
LEADVILLE      CLOUDY    35   7  31 SW9       29.97S WCI  28
MONARCH PASS   MOSUNNY   30  14  51 W36G47    30.11R WCI  14
SALIDA         PTSUNNY   59  10  14 W18G28    29.95S
SUNLIGHT       PTSUNNY   34  10  37 CALM      30.04F
WILKERSON PASS CLOUDY    36  10  35 W7        30.01S
$$

COZ069>075-162000-
...SAN LUIS VALLEY/SANGRE DE CRISTO MOUNTAINS...

CITY           SKY/WX    TMP DP  RH WIND       PRES   REMARKS
ALAMOSA        MOSUNNY   57  12  17 CALM      29.86F
LA VETA PASS   NOT AVBL
SAGUACHE       MOSUNNY   55  14  19 NW21G33   29.88F
$$

COZ035-036-038>040-162000-
...NORTHERN COLORADO FRONT RANGE...

CITY           SKY/WX    TMP DP  RH WIND       PRES   REMARKS
DENVER INTL AP MOSUNNY   54  17  23 NE22G31   29.91R
DMNS CITY PARK   N/A     52  19  26 E12G24    29.90S
AURORA         MOSUNNY   52  19  28 N7G28     29.91S
FRONT RANGE AP MOSUNNY   55  19  24 N23G29    29.92R
ERIE MUNI ARPT MOSUNNY   54  17  23 NE12      29.90S
BOULDER MUN AP MOSUNNY   54  18  24 E9G17     29.89S
CENTENNIAL     PTSUNNY   52  19  27 NE16G22   29.91R
BROOMFIELD     PTSUNNY   55  19  24 NE17G23   29.90S
FORT COLLINS   SUNNY     54  19  26 N22G28    29.91F
LONGMONT       SUNNY     59  22  24 E16G22    29.91R
$$

COZ041-046-047-076>085-087-088-162000-
...PIKES PEAK/PALMER DIVIDE AND SOUTHERN FOOTHILLS...

CITY           SKY/WX    TMP DP  RH WIND       PRES   REMARKS
COLO. SPRINGS  PTSUNNY   52  20  28 NE18G25   29.90R
A. F. ACADEMY  MOSUNNY   49  19  30 N10       29.90R
ELLICOTT       NOT AVBL
FALCON         MOSUNNY   51  19  28 NE13G23   29.93R
FORT CARSON    MOSUNNY   55  23  28 E14       29.87S
LIMON          SUNNY     51  23  33 N28G36    29.91R
MONUMENT HILL  MOSUNNY   46  18  31 NE13G22   29.91S
TRINIDAD       PTSUNNY   57  24  28 E12G21    29.87F
$$

COZ042>045-048>051-090-091-162000-
...NORTHEAST COLORADO...

CITY           SKY/WX    TMP DP  RH WIND       PRES   REMARKS
GREELEY ARPT   SUNNY     54  21  28 N31G37    29.90F
AKRON          PTSUNNY   50  26  39 N26G40    29.92R
BURLINGTON     SUNNY     56  25  30 N28G40    29.88F
WRAY           MOSUNNY   57  29  34 N23G37    29.90S
STERLING       CLOUDY    55  30  38 N22G38    29.92S
HOLYOKE        PTSUNNY   54  32  43 N25G35    29.91R
FORT MORGAN    MOSUNNY   53  23  30 N29G37    29.94S
$$

COZ086-089-092>099-162000-
...SOUTHEAST COLORADO...

CITY           SKY/WX    TMP DP  RH WIND       PRES   REMARKS
PUEBLO         SUNNY     61  21  21 E8        29.85F
LA JUNTA       PTSUNNY   64  22  20 NE18G28   29.87F
LAMAR          PTSUNNY   61  23  23 N20G31    29.86R
SPRINGFIELD      N/A     59  24  26 NE14      29.89S
$$



USA.gov is the U.S. government's official web portal to all federal, state and local government web resources and services.